Location: Moscow
(38.8570°N, 84.2291°W)
Time: 19:41:15
(UTC+00:00)

CZ-2D R/B - Pass Details

Date: 15 November 2025
Orbit: 404 x 411 km, 97.4° (Epoch: 12 December)

Event Time Altitude Azimuth Distance (km) Brightness Sun altitude
Rises 23:17:44 0° 170° (S) 2,335 6.6 -10.9°
Reaches altitude 10° 23:19:43 10° 171° (S) 1,474 5.6 -11.3°
Maximum altitude 23:22:51 78° 257° (WSW) 424 2.8 -11.9°
Drops below altitude 10° 23:25:58 10° 345° (NNW) 1,459 5.5 -12.4°
Sets 23:28:00 0° 347° (NNW) 2,341 6.5 -12.8°
